No;Time;Interval(mi);Indoor Humidity(%);Indoor Temperature(�C);Outdoor Humidity(%);Outdoor Temperature(�C);Absolute Pressure(Hpa);Wind(m/s);Gust(m/s);Direction;Relative Pressure(Hpa);Dewpoint(�C);Windchill(�C);Total Rainfall(mm)
1;2018-01-01 00:21:01;30;53;19.6;68;9.7;1001.1;1.0;2.4;N;1004.3;4.1;8.5;3179.1;
2;2018-01-01 00:51:01;30;48;19.3;66;9.4;1001.6;1.0;2.0;NW;1004.8;3.4;8.5;3179.1;
3;2018-01-01 01:21:01;30;48;19.2;66;9.2;1001.8;1.0;2.0;NW;1005.0;3.2;8.2;3179.1;
4;2018-01-01 01:51:01;30;48;19.2;65;9.1;1002.6;0.7;1.4;NW;1005.8;2.9;8.7;3179.1;
5;2018-01-01 02:21:01;30;49;19.0;67;8.9;1003.0;1.4;2.7;N;1006.2;3.1;7.4;3179.1;
6;2018-01-01 02:51:01;30;50;18.9;68;8.7;1003.2;1.4;3.1;N;1006.4;3.1;6.9;3179.1;
7;2018-01-01 03:21:01;30;48;19.0;69;8.5;1003.3;0.7;1.4;NW;1006.5;3.1;8.0;3179.1;
8;2018-01-01 03:51:01;30;49;19.0;71;8.1;1003.4;1.0;1.7;N;1006.6;3.2;7.3;3179.1;
9;2018-01-01 04:21:01;30;50;18.8;73;7.9;1003.3;0.7;1.4;N;1006.5;3.4;7.4;3179.1;
10;2018-01-01 04:51:01;30;50;18.8;74;7.8;1003.6;0.7;2.0;N;1006.8;3.5;6.6;3179.1;
11;2018-01-01 05:21:01;30;50;18.8;75;7.6;1003.4;1.0;2.0;N;1006.6;3.5;6.4;3179.1;
12;2018-01-01 05:51:01;30;50;18.7;77;7.4;1003.4;1.0;2.0;N;1006.6;3.6;6.1;3179.1;
13;2018-01-01 06:21:01;30;50;18.6;78;7.1;1003.1;0.3;1.4;N;1006.3;3.5;6.5;3179.1;
14;2018-01-01 06:51:01;30;50;18.8;81;6.8;1003.0;2.7;4.4;N;1006.2;3.8;3.9;3179.1;
15;2018-01-01 07:21:01;30;49;18.8;82;6.8;1002.6;2.4;4.1;NW;1005.8;3.9;4.0;3179.1;
16;2018-01-01 07:51:01;30;50;18.8;80;7.3;1002.1;1.0;3.1;NW;1005.3;4.1;5.2;3179.1;
17;2018-01-01 08:21:01;30;50;18.9;81;7.5;1001.4;2.4;3.4;NW;1004.6;4.5;5.2;3179.1;
18;2018-01-01 08:51:01;30;50;18.9;83;7.6;1000.3;1.0;2.0;NW;1003.5;4.9;6.4;3179.1;
19;2018-01-01 09:21:01;30;50;18.8;81;8.1;999.0;1.7;3.1;NW;1002.2;5.0;6.2;3179.1;
20;2018-01-01 09:51:01;30;50;18.5;84;7.9;997.7;1.0;2.4;NW;1000.9;5.4;6.4;3179.7;
21;2018-01-01 10:21:01;30;51;18.7;88;7.4;996.4;1.4;2.7;NW;999.6;5.5;5.6;3181.2;
22;2018-01-01 10:51:01;30;53;18.6;91;7.3;994.7;0.3;1.7;NW;997.9;5.9;6.3;3183.0;
23;2018-01-01 11:21:01;30;54;18.6;92;7.7;993.1;2.4;3.7;NW;996.3;6.5;5.3;3184.2;
24;2018-01-01 11:51:01;30;54;18.9;93;8.2;991.7;1.7;3.1;NW;994.9;7.1;6.3;3186.6;
25;2018-01-01 12:21:01;30;55;18.8;94;8.3;990.2;0.0;0.3;NW;993.4;7.4;8.3;3189.0;
26;2018-01-01 12:51:01;30;55;18.8;95;9.2;989.6;1.7;2.4;N;992.8;8.4;7.9;3189.9;
27;2018-01-01 13:21:01;30;55;18.8;94;9.7;989.2;1.4;2.0;NE;992.4;8.8;8.8;3189.9;
28;2018-01-01 13:51:01;30;54;19.0;84;10.3;988.9;1.4;2.0;NE;992.1;7.7;10.3;3189.9;
29;2018-01-01 14:21:01;30;54;19.0;78;10.4;988.6;1.0;2.7;NW;991.8;6.7;10.4;3189.9;
30;2018-01-01 14:51:01;30;54;19.0;84;9.4;988.7;1.0;1.4;NW;991.9;6.8;9.1;3190.2;
31;2018-01-01 15:21:01;30;56;18.7;88;9.1;990.0;1.0;1.7;N;993.2;7.2;8.4;3190.5;
32;2018-01-01 15:51:02;30;56;18.6;87;9.3;991.4;0.3;0.7;NW;994.6;7.2;9.3;3190.5;
33;2018-01-01 16:21:02;30;60;18.8;88;8.9;993.2;0.7;1.7;NW;996.4;7.0;8.2;3190.8;
34;2018-01-01 16:51:02;30;56;18.5;86;8.5;994.9;1.4;1.7;N;998.1;6.3;7.7;3190.8;
35;2018-01-01 17:21:02;30;55;18.4;85;8.2;996.5;0.3;1.4;SW;999.7;5.8;7.7;3190.8;
36;2018-01-01 17:51:02;30;54;18.5;81;8.3;997.9;0.3;1.0;S;1001.1;5.2;8.3;3190.8;
37;2018-01-01 18:21:02;30;53;18.8;80;8.3;999.1;1.7;3.7;S;1002.3;5.1;6.1;3190.8;
38;2018-01-01 18:51:02;30;53;19.1;83;7.6;1000.2;0.0;0.7;S;1003.4;4.9;7.6;3191.1;
39;2018-01-01 19:21:02;30;55;18.8;84;7.8;1001.3;0.7;1.0;S;1004.5;5.3;7.8;3191.1;
40;2018-01-01 19:51:02;30;59;19.2;82;7.6;1002.0;0.0;0.7;S;1005.2;4.7;7.6;3191.1;
41;2018-01-01 20:21:02;30;54;18.9;83;7.3;1002.8;0.3;1.0;S;1006.0;4.6;7.3;3191.1;
42;2018-01-01 20:51:02;30;55;18.9;83;7.5;1003.5;0.3;1.4;S;1006.7;4.8;6.9;3191.1;
43;2018-01-01 21:21:02;30;54;19.1;82;7.6;1004.1;0.3;1.0;SSW;1007.3;4.7;7.6;3191.1;
44;2018-01-01 21:51:02;30;54;19.4;82;7.6;1004.8;0.7;1.4;S;1008.0;4.7;7.0;3191.1;
45;2018-01-01 22:21:02;30;49;19.2;82;7.6;1005.5;0.7;1.4;S;1008.7;4.7;7.0;3191.1;
46;2018-01-01 22:51:02;30;50;19.3;84;7.2;1005.8;0.0;0.0;S;1009.0;4.7;7.2;3192.0;
47;2018-01-01 23:21:02;30;50;19.3;86;7.1;1006.2;0.0;0.3;S;1009.4;4.9;7.1;3192.0;
48;2018-01-01 23:51:02;30;50;19.2;85;7.1;1006.6;0.3;1.0;S;1009.8;4.8;7.1;3192.0;
49;2018-01-02 00:21:02;30;50;19.0;86;6.8;1007.0;0.3;0.7;S;1010.2;4.6;6.8;3192.3;
50;2018-01-02 00:51:02;30;51;18.8;87;6.8;1007.4;0.0;0.3;S;1010.6;4.8;6.8;3192.3;
51;2018-01-02 01:21:02;30;51;18.5;86;6.9;1007.7;0.7;1.7;S;1010.9;4.7;5.9;3192.3;
52;2018-01-02 01:51:02;30;51;18.4;84;7.1;1008.1;0.3;1.7;S;1011.3;4.6;6.1;3192.3;
53;2018-01-02 02:21:02;30;51;18.5;83;7.0;1008.4;0.3;1.0;S;1011.6;4.3;7.0;3192.3;
54;2018-01-02 02:51:02;30;51;18.5;83;7.2;1008.6;0.0;0.7;S;1011.8;4.5;7.2;3192.3;
55;2018-01-02 03:21:02;30;50;18.5;82;7.1;1008.6;0.0;0.3;S;1011.8;4.2;7.1;3192.3;
56;2018-01-02 03:51:02;30;50;18.5;84;6.9;1008.9;0.0;0.7;S;1012.1;4.4;6.9;3192.3;
57;2018-01-02 04:21:02;30;50;18.4;84;6.9;1009.3;0.0;0.3;S;1012.5;4.4;6.9;3192.3;
58;2018-01-02 04:51:02;30;50;18.5;83;7.1;1009.5;0.3;1.0;S;1012.7;4.4;7.1;3192.3;
59;2018-01-02 05:21:02;30;50;18.5;84;6.9;1009.4;0.3;1.4;S;1012.6;4.4;6.2;3192.3;
60;2018-01-02 05:51:02;30;50;18.4;85;6.6;1009.5;0.0;0.7;S;1012.7;4.3;6.6;3192.3;
61;2018-01-02 06:21:02;30;51;18.3;86;6.6;1009.4;0.3;1.0;S;1012.6;4.4;6.6;3192.3;
62;2018-01-02 06:51:02;30;51;18.4;87;6.6;1010.0;0.0;1.0;S;1013.2;4.6;6.6;3192.3;
63;2018-01-02 07:21:02;30;50;18.4;87;6.6;1010.8;0.0;0.7;S;1014.0;4.6;6.6;3192.3;
64;2018-01-02 07:51:02;30;50;18.3;86;6.5;1011.4;1.0;2.7;S;1014.6;4.3;4.5;3192.3;
65;2018-01-02 08:21:02;30;50;18.3;85;6.7;1011.3;0.7;1.7;S;1014.5;4.4;5.6;3192.3;
66;2018-01-02 08:51:02;30;50;18.4;84;6.7;1010.9;0.7;1.4;S;1014.1;4.2;6.0;3192.3;
67;2018-01-02 09:21:02;30;50;18.3;84;6.8;1010.5;0.7;1.7;S;1013.7;4.3;5.8;3192.3;
68;2018-01-02 09:51:02;30;51;18.4;82;7.0;1010.7;0.7;1.4;S;1013.9;4.1;6.3;3192.3;
69;2018-01-02 10:21:02;30;49;17.7;82;7.1;1010.2;0.3;0.7;S;1013.4;4.2;7.1;3192.3;
70;2018-01-02 10:51:00;30;50;18.2;82;7.4;1009.8;1.7;2.7;S;1013.0;4.5;5.6;3192.3;
71;2018-01-02 11:21:00;30;50;18.5;81;8.1;1009.7;1.7;3.1;S;1012.9;5.0;6.2;3192.3;
72;2018-01-02 11:51:01;30;51;18.5;80;8.4;1009.0;1.4;2.4;S;1012.2;5.2;7.0;3192.3;
73;2018-01-02 12:21:01;30;51;18.6;81;9.0;1008.9;1.0;1.7;S;1012.1;5.9;8.3;3192.3;
74;2018-01-02 13:22:01;30;55;18.4;84;9.4;1006.6;1.4;2.0;S;1009.8;6.8;8.5;3192.3;
75;2018-01-02 13:52:01;30;56;18.5;86;9.3;1006.4;0.7;1.7;S;1009.6;7.1;8.6;3192.3;
76;2018-01-02 14:22:01;30;56;18.9;87;9.4;1005.5;1.0;2.0;S;1008.7;7.3;8.5;3192.3;
77;2018-01-02 14:52:01;30;55;19.0;88;9.4;1005.9;1.7;2.4;S;1009.1;7.5;8.2;3192.3;
78;2018-01-02 15:22:01;30;56;18.5;91;9.3;1005.6;1.7;2.4;S;1008.8;7.9;8.1;3192.3;
79;2018-01-02 15:52:01;30;56;18.4;93;9.3;1005.4;0.7;1.7;S;1008.6;8.2;8.6;3192.6;
80;2018-01-02 16:22:01;30;57;18.5;94;9.3;1005.0;1.0;2.0;S;1008.2;8.4;8.4;3192.9;
81;2018-01-02 16:52:01;30;57;18.9;95;9.5;1004.7;0.7;1.4;S;1007.9;8.7;9.2;3192.9;
82;2018-01-02 17:22:01;30;56;19.1;95;9.8;1005.2;0.7;2.0;S;1008.4;9.0;8.9;3192.9;
83;2018-01-02 17:52:01;30;56;19.3;94;10.1;1004.6;1.0;2.0;W;1007.8;9.2;10.1;3192.9;
84;2018-01-02 18:22:01;30;59;19.1;94;10.2;1004.5;1.0;1.4;W;1007.7;9.3;10.2;3192.9;
85;2018-01-02 18:52:01;30;62;19.8;95;10.4;1004.1;0.3;1.4;W;1007.3;9.6;10.4;3192.9;
86;2018-01-02 19:22:01;30;62;19.8;95;10.7;1004.0;0.0;0.3;W;1007.2;9.9;10.7;3192.9;
87;2018-01-02 19:52:01;30;63;20.1;94;11.0;1003.5;0.7;1.0;SW;1006.7;10.1;11.0;3192.9;
88;2018-01-02 20:22:01;30;63;19.7;93;11.2;1002.9;1.0;1.7;W;1006.1;10.1;11.2;3192.9;
89;2018-01-02 20:52:01;30;63;20.1;93;11.3;1002.8;0.7;1.4;SW;1006.0;10.2;11.3;3192.9;
90;2018-01-02 21:22:01;30;62;20.3;93;11.8;1002.0;1.7;3.1;SW;1005.2;10.7;11.8;3192.9;
91;2018-01-02 21:52:01;30;62;20.1;91;12.1;1001.5;2.0;3.1;SW;1004.7;10.7;12.1;3192.9;
92;2018-01-02 22:22:01;30;61;20.2;87;12.5;1000.7;1.4;2.7;S;1003.9;10.4;12.5;3192.9;
93;2018-01-02 22:52:01;30;61;19.9;84;12.6;999.8;0.7;1.0;S;1003.0;10.0;12.6;3192.9;
94;2018-01-02 23:22:01;30;60;19.9;84;12.7;998.8;2.7;4.8;SW;1002.0;10.1;12.7;3192.9;
95;2018-01-02 23:52:01;30;60;19.9;84;12.9;998.6;1.4;2.4;W;1001.8;10.3;12.9;3192.9;
96;2018-01-03 00:22:01;30;60;19.8;84;12.9;997.4;2.4;3.7;S;1000.6;10.3;12.9;3192.9;
97;2018-01-03 00:52:01;30;60;19.7;87;13.0;996.1;1.4;2.0;SW;999.3;10.9;13.0;3192.9;
98;2018-01-03 01:22:01;30;60;19.5;87;13.1;994.9;1.7;3.1;S;998.1;11.0;13.1;3192.9;
99;2018-01-03 01:52:01;30;61;19.4;88;13.2;994.0;1.4;2.4;SW;997.2;11.3;13.2;3192.9;
100;2018-01-03 02:22:01;30;62;19.3;89;13.6;993.4;1.4;3.7;SW;996.6;11.8;13.6;3193.2;
101;2018-01-03 02:52:01;30;63;19.2;87;14.0;992.2;1.4;2.4;SW;995.4;11.9;14.0;3193.2;
102;2018-01-03 03:22:01;30;64;19.3;90;13.9;991.3;2.7;5.4;SW;994.5;12.3;13.9;3193.8;
103;2018-01-03 03:52:01;30;64;19.4;93;13.5;992.1;0.7;1.4;W;995.3;12.4;13.5;3198.3;
104;2018-01-03 04:22:01;30;64;18.9;89;11.0;992.0;1.0;1.7;N;995.2;9.3;11.0;3199.8;
105;2018-01-03 04:52:01;30;61;18.8;82;11.2;992.9;0.7;1.0;W;996.1;8.2;11.2;3199.8;
106;2018-01-03 05:22:01;30;60;18.7;79;11.6;993.4;1.7;3.1;SE;996.6;8.1;11.6;3199.8;
107;2018-01-03 05:52:01;30;60;18.9;81;11.0;993.1;0.7;1.4;ESE;996.3;7.9;11.0;3199.8;
108;2018-01-03 06:22:01;30;58;19.1;75;11.3;993.6;1.0;2.4;S;996.8;7.0;11.3;3199.8;
109;2018-01-03 06:52:01;30;58;18.5;84;7.6;995.2;1.0;2.0;NW;998.4;5.1;6.4;3201.6;
110;2018-01-03 07:22:01;30;57;18.4;76;8.3;995.3;1.0;2.0;S;998.5;4.3;7.2;3201.6;
111;2018-01-03 07:52:01;30;56;18.5;73;8.8;996.1;1.4;2.4;S;999.3;4.2;7.5;3201.6;
112;2018-01-03 08:22:01;30;55;18.5;71;9.2;997.1;1.4;2.7;NW;1000.3;4.2;7.7;3201.6;
113;2018-01-03 08:52:01;30;55;18.5;71;8.8;998.1;1.7;2.4;NW;1001.3;3.8;7.5;3201.9;
114;2018-01-03 09:22:01;30;54;18.3;76;8.2;999.1;2.7;3.7;SW;1002.3;4.2;5.9;3202.2;
115;2018-01-03 09:52:01;30;55;18.2;81;7.5;1000.1;1.4;2.0;W;1003.3;4.5;6.3;3202.2;
116;2018-01-03 10:22:01;30;55;18.5;76;9.1;1000.4;1.0;2.4;NW;1003.6;5.1;7.8;3202.2;
117;2018-01-03 10:52:01;30;52;18.3;66;10.2;1000.9;2.0;3.1;NW;1004.1;4.1;10.2;3202.2;
118;2018-01-03 11:22:00;30;55;18.5;63;11.0;1000.9;1.7;4.1;NW;1004.1;4.2;11.0;3202.2;
119;2018-01-03 11:52:00;30;56;18.9;58;11.9;1001.2;0.7;2.0;NW;1004.4;3.9;11.9;3202.2;
120;2018-01-03 12:22:01;30;55;18.3;79;8.6;1002.0;0.7;1.4;NW;1005.2;5.2;8.2;3203.1;
121;2018-01-03 12:52:01;30;56;18.6;71;10.8;1002.1;0.7;1.0;NW;1005.3;5.8;10.8;3203.1;
122;2018-01-03 13:22:01;30;56;18.6;65;11.0;1002.2;1.0;2.0;NW;1005.4;4.7;11.0;3203.1;
123;2018-01-03 13:52:01;30;57;18.5;69;10.7;1002.7;0.3;1.0;N;1005.9;5.2;10.7;3203.4;
124;2018-01-03 14:22:01;30;59;18.7;76;9.0;1003.1;1.0;1.7;NW;1006.3;5.0;8.3;3204.0;
125;2018-01-03 14:52:01;30;57;18.5;73;9.4;1003.0;1.4;3.7;N;1006.2;4.8;7.4;3204.0;
126;2018-01-03 15:22:01;30;55;18.4;67;10.2;1003.0;2.0;3.7;N;1006.2;4.3;10.2;3204.0;
127;2018-01-03 15:52:01;30;55;18.5;67;9.8;1003.2;1.0;3.7;N;1006.4;4.0;7.9;3204.0;
128;2018-01-03 16:22:01;30;50;18.0;68;9.3;1003.2;1.7;2.7;N;1006.4;3.7;7.8;3204.0;
129;2018-01-03 16:52:01;30;50;18.5;70;9.2;1003.4;1.0;1.7;NW;1006.6;4.0;8.5;3204.0;
130;2018-01-03 17:22:01;30;50;18.8;71;9.4;1003.6;1.4;2.0;N;1006.8;4.4;8.5;3204.0;
131;2018-01-03 17:52:01;30;49;19.0;68;9.7;1003.8;1.0;1.7;N;1007.0;4.1;9.1;3204.0;
132;2018-01-03 18:22:01;30;49;19.2;70;9.4;1003.9;0.7;1.0;N;1007.1;4.2;9.4;3204.0;
133;2018-01-03 18:52:01;30;50;19.3;71;9.5;1003.5;1.0;1.7;N;1006.7;4.5;8.9;3204.0;
134;2018-01-03 19:22:01;30;50;19.4;75;9.2;1003.7;0.7;1.4;N;1006.9;5.0;8.8;3204.0;
135;2018-01-03 19:52:01;30;50;19.4;76;9.2;1003.7;0.0;1.0;N;1006.9;5.2;9.2;3204.0;
136;2018-01-03 20:22:01;30;51;19.3;76;9.4;1003.5;0.7;1.0;N;1006.7;5.4;9.4;3204.0;
137;2018-01-03 20:52:01;30;51;19.3;76;9.8;1003.0;1.4;3.4;N;1006.2;5.8;8.0;3204.0;
138;2018-01-03 21:22:01;30;51;19.0;76;9.8;1002.8;0.7;1.4;N;1006.0;5.8;9.5;3204.0;
139;2018-01-03 21:52:01;30;51;19.0;73;9.5;1003.3;0.7;1.0;NE;1006.5;4.9;9.5;3204.0;
140;2018-01-03 22:22:01;30;53;18.9;81;8.8;1002.7;0.0;0.3;NE;1005.9;5.7;8.8;3204.3;
141;2018-01-03 22:52:01;30;55;18.9;87;8.6;1002.3;0.3;1.0;NE;1005.5;6.6;8.6;3204.6;
142;2018-01-03 23:22:01;30;54;19.0;89;8.7;1002.3;0.3;0.7;NE;1005.5;7.0;8.7;3205.2;
143;2018-01-03 23:52:01;30;54;19.0;91;8.7;1001.3;0.3;1.0;NE;1004.5;7.3;8.7;3205.8;
144;2018-01-04 00:22:01;30;54;19.0;93;8.7;1001.0;0.3;1.0;NE;1004.2;7.6;8.7;3206.1;
145;2018-01-04 00:52:01;30;56;18.8;94;8.7;1000.1;0.3;0.7;NE;1003.3;7.8;8.7;3206.1;
146;2018-01-04 01:22:01;30;56;18.7;95;8.7;999.6;0.0;0.7;NE;1002.8;7.9;8.7;3206.1;
147;2018-01-04 01:52:01;30;56;18.6;95;8.9;999.6;0.0;0.3;NE;1002.8;8.1;8.9;3206.1;
148;2018-01-04 02:22:01;30;56;18.5;94;9.0;998.7;0.3;1.0;NE;1001.9;8.1;9.0;3206.1;
149;2018-01-04 02:52:01;30;57;18.5;95;9.2;998.3;1.0;1.7;NE;1001.5;8.4;8.5;3206.4;
150;2018-01-04 03:22:01;30;57;18.5;96;9.4;997.9;0.7;1.7;NE;1001.1;8.8;8.7;3206.7;
151;2018-01-04 03:52:01;30;57;18.6;97;9.5;996.9;0.3;1.4;NE;1000.1;9.0;9.2;3207.0;
152;2018-01-04 04:22:01;30;58;18.8;97;9.6;996.7;0.0;0.3;N;999.9;9.1;9.6;3207.0;
153;2018-01-04 04:52:01;30;58;18.7;97;9.8;996.2;0.0;0.7;SE;999.4;9.3;9.8;3207.6;
154;2018-01-04 05:22:01;30;58;18.6;97;10.2;995.4;0.0;0.3;SE;998.6;9.7;10.2;3208.2;
155;2018-01-04 05:52:01;30;59;18.6;98;10.6;995.3;0.7;1.4;SE;998.5;10.3;10.6;3209.4;
156;2018-01-04 06:22:01;30;60;18.7;97;11.0;994.6;0.0;0.7;SE;997.8;10.5;11.0;3209.7;
157;2018-01-04 06:52:01;30;61;18.9;97;12.2;994.3;0.0;0.7;W;997.5;11.7;12.2;3209.7;
158;2018-01-04 07:22:01;30;61;19.0;99;13.0;994.2;0.7;2.4;SW;997.4;12.8;13.0;3210.0;
159;2018-01-04 07:52:01;30;61;19.1;98;13.3;994.2;0.3;1.0;SW;997.4;13.0;13.3;3210.3;
160;2018-01-04 08:22:01;30;62;19.1;97;13.6;994.5;1.0;2.4;W;997.7;13.1;13.6;3210.3;
161;2018-01-04 08:52:01;30;62;19.1;94;13.8;994.4;0.7;2.4;W;997.6;12.9;13.8;3210.6;
162;2018-01-04 09:22:01;30;64;19.2;90;14.1;995.3;0.7;2.0;NW;998.5;12.5;14.1;3210.6;
163;2018-01-04 09:52:01;30;64;19.3;88;14.2;995.2;1.0;2.4;S;998.4;12.2;14.2;3210.6;
164;2018-01-04 10:22:01;30;65;19.1;87;14.6;995.4;1.7;2.7;S;998.6;12.5;14.6;3210.6;
165;2018-01-04 10:52:01;30;66;19.4;86;14.8;995.3;1.4;2.0;SW;998.5;12.5;14.8;3210.6;
166;2018-01-04 11:22:01;30;65;19.1;85;14.9;995.1;2.0;3.4;W;998.3;12.4;14.9;3210.6;
167;2018-01-04 11:52:00;30;67;19.1;86;14.7;995.0;0.7;1.0;SW;998.2;12.4;14.7;3210.6;
168;2018-01-04 12:22:00;30;67;19.4;85;14.8;994.3;1.4;2.4;SW;997.5;12.3;14.8;3210.6;
169;2018-01-04 12:52:01;30;69;18.5;85;14.9;994.2;2.0;3.7;W;997.4;12.4;14.9;3210.6;
170;2018-01-04 13:22:01;30;69;18.3;86;14.6;993.8;2.4;3.1;W;997.0;12.3;14.6;3210.6;
171;2018-01-04 13:52:01;30;71;18.7;86;14.7;993.7;1.4;2.7;W;996.9;12.4;14.7;3210.6;
172;2018-01-04 14:22:01;30;70;18.7;86;14.8;993.3;1.0;1.7;NW;996.5;12.5;14.8;3210.6;
173;2018-01-04 14:52:01;30;69;19.1;85;14.7;993.2;1.0;2.7;NW;996.4;12.2;14.7;3210.6;
174;2018-01-04 15:22:01;30;68;19.3;86;14.1;994.3;1.4;2.7;NW;997.5;11.8;14.1;3212.1;
175;2018-01-04 15:52:01;30;66;19.4;87;11.5;994.4;1.0;2.0;W;997.6;9.4;11.5;3212.4;
176;2018-01-04 16:22:01;30;65;19.5;85;11.3;994.4;0.0;0.0;SW;997.6;8.9;11.3;3212.4;
177;2018-01-04 16:52:01;30;64;19.6;84;11.2;994.7;0.3;1.0;N;997.9;8.6;11.2;3212.4;
178;2018-01-04 17:22:01;30;64;19.6;82;11.6;994.9;0.3;1.0;SW;998.1;8.6;11.6;3212.4;
179;2018-01-04 17:52:01;30;62;19.3;82;11.5;995.3;0.3;1.7;SW;998.5;8.5;11.5;3212.4;
180;2018-01-04 18:22:01;30;62;19.7;82;11.4;995.9;0.3;1.0;NW;999.1;8.4;11.4;3212.4;
181;2018-01-04 18:52:01;30;59;19.6;82;11.2;996.5;0.7;1.4;W;999.7;8.2;11.2;3212.4;
182;2018-01-04 19:22:01;30;60;19.7;83;11.2;996.8;0.7;1.0;SW;1000.0;8.4;11.2;3212.4;
183;2018-01-04 19:52:01;30;57;19.1;77;11.0;996.6;0.7;1.4;SW;999.8;7.1;11.0;3212.4;
184;2018-01-04 20:22:01;30;64;19.4;75;10.7;996.9;0.3;1.0;W;1000.1;6.5;10.7;3212.4;
185;2018-01-04 20:52:01;30;57;18.9;76;10.4;997.0;0.3;0.7;W;1000.2;6.4;10.4;3212.4;
186;2018-01-04 21:22:01;30;57;19.6;81;10.5;997.2;0.3;1.0;W;1000.4;7.4;10.5;3212.4;
187;2018-01-04 21:52:01;30;57;19.8;81;10.1;997.2;0.7;1.4;W;1000.4;7.0;10.1;3212.4;
188;2018-01-04 22:22:01;30;56;20.3;83;10.4;997.1;1.4;2.4;NW;1000.3;7.6;10.4;3212.4;
189;2018-01-04 22:52:01;30;56;20.6;84;10.3;996.5;1.7;2.7;W;999.7;7.7;10.3;3212.7;
190;2018-01-04 23:22:01;30;55;20.1;85;10.5;996.7;1.0;1.7;NW;999.9;8.1;10.5;3212.7;
191;2018-01-04 23:52:01;30;55;20.0;84;10.6;996.0;1.7;2.7;NW;999.2;8.0;10.6;3212.7;
192;2018-01-05 00:22:01;30;56;19.9;84;10.6;995.9;0.7;1.0;NW;999.1;8.0;10.6;3212.7;
193;2018-01-05 00:52:01;30;56;19.7;84;10.7;995.7;1.0;1.4;NW;998.9;8.1;10.7;3212.7;
194;2018-01-05 01:22:01;30;56;19.6;84;10.8;995.4;0.7;2.0;WNW;998.6;8.2;10.8;3212.7;
195;2018-01-05 01:52:01;30;56;19.4;84;10.8;995.0;1.0;1.7;NW;998.2;8.2;10.8;3212.7;
196;2018-01-05 02:22:01;30;56;19.4;86;10.8;994.7;1.4;2.7;NW;997.9;8.6;10.8;3212.7;
197;2018-01-05 02:52:01;30;57;19.3;89;10.4;994.5;0.7;1.7;NW;997.7;8.7;10.4;3213.0;
198;2018-01-05 03:22:01;30;57;19.3;92;10.2;994.3;1.0;2.0;W;997.5;9.0;10.2;3213.0;
199;2018-01-05 03:52:01;30;57;19.2;93;9.9;994.6;0.7;1.0;W;997.8;8.8;9.9;3216.0;
200;2018-01-05 04:22:01;30;57;19.2;93;9.4;994.3;0.7;1.0;W;997.5;8.3;9.4;3216.6;
201;2018-01-05 04:52:01;30;57;19.1;93;9.2;994.1;0.0;0.0;W;997.3;8.1;9.2;3217.2;
202;2018-01-05 05:22:01;30;57;19.1;94;9.3;993.7;0.0;0.0;W;996.9;8.4;9.3;3217.2;
203;2018-01-05 05:52:01;30;57;19.0;94;9.3;994.0;0.0;0.0;W;997.2;8.4;9.3;3217.2;
204;2018-01-05 06:22:01;30;57;19.1;93;9.2;993.4;0.3;0.7;W;996.6;8.1;9.2;3217.2;
205;2018-01-05 06:52:01;30;57;19.1;92;9.3;993.7;0.0;1.0;W;996.9;8.1;9.3;3217.2;
206;2018-01-05 07:22:01;30;57;19.1;92;9.4;993.8;0.0;0.3;W;997.0;8.2;9.4;3217.2;
207;2018-01-05 07:52:01;30;57;19.0;91;9.4;994.0;0.0;0.3;NW;997.2;8.0;9.4;3217.2;
208;2018-01-05 08:22:01;30;57;19.0;91;9.4;993.6;0.0;0.7;W;996.8;8.0;9.4;3217.2;
209;2018-01-05 08:52:01;30;57;19.0;91;9.5;993.7;0.3;1.4;NW;996.9;8.1;9.2;3217.2;
210;2018-01-05 09:22:00;30;57;19.1;91;9.8;993.8;0.0;0.3;W;997.0;8.4;9.8;3217.2;
211;2018-01-05 09:52:01;30;57;18.5;89;10.0;994.2;0.3;0.7;W;997.4;8.3;10.0;3217.2;
212;2018-01-05 10:22:01;30;59;18.9;88;10.3;994.1;0.0;0.7;W;997.3;8.4;10.3;3217.2;
213;2018-01-05 10:52:01;30;58;18.9;87;10.5;993.8;0.7;2.0;W;997.0;8.4;10.5;3217.2;
214;2018-01-05 11:22:01;30;58;19.2;86;10.7;993.9;0.3;0.7;NW;997.1;8.5;10.7;3217.2;
215;2018-01-05 11:52:01;30;58;19.1;84;11.1;993.9;0.3;1.4;NW;997.1;8.5;11.1;3217.2;
216;2018-01-05 12:22:01;30;57;19.2;82;11.3;993.7;0.0;0.3;SW;996.9;8.3;11.3;3217.2;
217;2018-01-05 12:52:01;30;57;19.1;77;11.7;993.7;0.0;0.7;NW;996.9;7.8;11.7;3217.2;
218;2018-01-05 13:22:01;30;57;19.1;77;11.7;993.6;1.0;2.4;NW;996.8;7.8;11.7;3217.2;
219;2018-01-05 13:52:01;30;57;19.1;76;11.7;993.6;1.4;2.0;NW;996.8;7.6;11.7;3217.2;
220;2018-01-05 14:22:01;30;57;19.0;75;11.5;993.6;0.7;1.4;NW;996.8;7.2;11.5;3217.2;
221;2018-01-05 14:52:01;30;57;19.3;83;10.5;993.9;1.7;3.7;W;997.1;7.7;10.5;3218.1;
222;2018-01-05 15:22:01;30;57;19.4;83;10.3;994.1;0.3;0.7;NW;997.3;7.5;10.3;3218.1;
223;2018-01-05 15:52:01;30;56;19.0;84;10.1;994.2;1.0;2.0;NW;997.4;7.5;10.1;3218.1;
224;2018-01-05 16:22:01;30;57;18.7;84;9.9;994.5;0.7;1.0;NW;997.7;7.3;9.9;3218.1;
225;2018-01-05 16:52:01;30;56;19.0;84;9.2;994.9;0.0;0.0;NW;998.1;6.6;9.2;3218.1;
226;2018-01-05 17:22:01;30;55;19.1;85;8.9;995.0;0.3;1.0;NW;998.2;6.5;8.9;3218.1;
227;2018-01-05 17:52:01;30;55;19.3;85;8.8;995.2;0.0;0.0;NW;998.4;6.4;8.8;3218.1;
228;2018-01-05 18:22:01;30;55;19.5;85;8.5;995.4;0.7;1.7;NW;998.6;6.1;7.7;3218.1;
229;2018-01-05 18:52:01;30;55;18.9;85;8.3;995.9;0.0;0.3;NW;999.1;5.9;8.3;3218.1;
230;2018-01-05 19:22:01;30;55;18.9;84;7.7;995.9;0.3;0.7;NW;999.1;5.2;7.7;3218.1;
231;2018-01-05 19:52:01;30;55;18.9;85;7.4;996.1;0.3;0.7;NW;999.3;5.0;7.4;3218.1;
232;2018-01-05 20:22:01;30;54;18.9;85;7.3;996.2;0.0;0.3;NW;999.4;4.9;7.3;3218.1;
233;2018-01-05 20:52:01;30;53;19.0;85;7.3;996.3;0.0;0.0;NW;999.5;4.9;7.3;3218.1;
234;2018-01-05 21:22:01;30;53;19.1;86;7.2;996.6;0.0;0.0;NW;999.8;5.0;7.2;3218.1;
235;2018-01-05 21:52:01;30;53;19.2;85;7.5;996.6;0.0;0.3;NW;999.8;5.1;7.5;3218.1;
236;2018-01-05 22:22:01;30;52;19.3;86;6.9;996.6;0.0;0.0;NW;999.8;4.7;6.9;3218.1;
237;2018-01-05 22:52:01;30;51;18.8;86;6.5;996.8;0.0;0.3;NW;1000.0;4.3;6.5;3218.1;
238;2018-01-05 23:22:01;30;53;19.5;88;6.6;996.9;0.0;0.0;NW;1000.1;4.8;6.6;3218.1;
239;2018-01-05 23:52:01;30;51;19.0;88;7.1;996.9;0.0;0.0;NW;1000.1;5.2;7.1;3218.1;
240;2018-01-06 00:22:01;30;52;19.1;90;7.5;997.0;0.7;1.4;NW;1000.2;6.0;6.9;3218.1;
241;2018-01-06 00:52:01;30;52;19.0;91;7.7;996.9;0.0;0.7;NW;1000.1;6.3;7.7;3218.1;
242;2018-01-06 01:22:01;30;54;18.9;91;7.5;996.4;0.0;0.7;W;999.6;6.1;7.5;3218.1;
243;2018-01-06 01:52:01;30;54;18.6;92;7.6;996.8;0.7;1.0;W;1000.0;6.4;7.6;3218.1;
244;2018-01-06 02:22:01;30;54;18.5;92;7.8;996.9;1.0;1.7;W;1000.1;6.6;6.9;3218.1;
245;2018-01-06 02:52:01;30;55;18.7;92;8.1;996.8;0.0;0.3;W;1000.0;6.9;8.1;3218.1;
246;2018-01-06 03:22:01;30;55;18.8;91;8.2;996.9;0.0;0.3;W;1000.1;6.8;8.2;3218.1;
247;2018-01-06 03:52:01;30;55;18.7;92;7.8;996.6;0.0;0.0;W;999.8;6.6;7.8;3218.1;
248;2018-01-06 04:22:01;30;55;18.6;92;7.7;996.8;0.3;0.7;NW;1000.0;6.5;7.7;3218.1;
249;2018-01-06 04:52:01;30;55;18.8;92;7.8;996.9;0.3;0.7;NW;1000.1;6.6;7.8;3218.1;
250;2018-01-06 05:22:01;30;55;18.8;91;7.7;996.8;0.7;1.4;NW;1000.0;6.3;7.1;3218.1;
251;2018-01-06 05:52:01;30;54;18.7;90;7.7;997.2;0.0;0.3;NW;1000.4;6.2;7.7;3218.1;
252;2018-01-06 06:22:01;30;54;18.6;89;7.8;997.5;1.0;1.4;NW;1000.7;6.1;7.2;3218.1;
253;2018-01-06 06:52:01;30;55;18.7;90;7.7;997.7;0.0;0.0;NW;1000.9;6.2;7.7;3218.1;
254;2018-01-06 07:22:01;30;54;18.8;90;7.6;997.8;0.0;0.0;NW;1001.0;6.1;7.6;3218.1;
255;2018-01-06 07:52:01;30;54;18.7;91;7.7;998.1;0.0;0.0;NW;1001.3;6.3;7.7;3218.1;
256;2018-01-06 08:22:01;30;54;18.6;91;7.8;998.4;0.7;1.4;NW;1001.6;6.4;7.2;3218.1;
257;2018-01-06 08:52:01;30;55;18.7;90;8.3;999.1;0.0;0.0;NW;1002.3;6.8;8.3;3218.1;
258;2018-01-06 09:22:00;30;55;18.8;89;8.5;999.5;0.7;1.0;NW;1002.7;6.8;8.5;3218.1;
259;2018-01-06 09:52:00;30;54;18.2;88;8.6;999.7;0.3;0.7;N;1002.9;6.7;8.6;3218.1;
260;2018-01-06 10:22:01;30;54;18.5;87;8.8;1000.0;0.3;0.7;N;1003.2;6.8;8.8;3218.1;
261;2018-01-06 10:52:01;30;55;18.8;85;9.3;1000.0;0.0;0.3;N;1003.2;6.9;9.3;3218.1;
262;2018-01-06 11:22:01;30;54;18.1;84;9.7;1000.3;0.0;0.3;N;1003.5;7.1;9.7;3218.1;
263;2018-01-06 11:52:01;30;53;18.0;81;10.1;1000.3;0.0;0.0;N;1003.5;7.0;10.1;3218.1;
264;2018-01-06 12:22:01;30;54;18.2;78;10.1;1000.0;0.0;0.3;N;1003.2;6.4;10.1;3218.1;
265;2018-01-06 12:52:01;30;53;18.3;78;10.1;1000.1;0.0;0.7;N;1003.3;6.4;10.1;3218.1;
266;2018-01-06 13:22:01;30;53;18.5;78;10.0;1000.4;0.3;1.0;NW;1003.6;6.3;10.0;3218.1;
267;2018-01-06 13:52:01;30;55;18.6;79;9.8;1000.4;0.0;0.3;NW;1003.6;6.3;9.8;3218.1;
268;2018-01-06 14:22:01;30;55;18.7;80;9.6;1000.8;0.0;0.3;NW;1004.0;6.3;9.6;3218.1;
269;2018-01-06 14:52:01;30;55;18.7;80;9.2;1001.2;0.0;0.3;NW;1004.4;5.9;9.2;3218.1;
270;2018-01-06 15:22:01;30;55;18.8;80;9.1;1001.4;0.0;0.3;NW;1004.6;5.8;9.1;3218.1;
271;2018-01-06 15:52:01;30;54;18.8;82;8.8;1001.4;0.0;0.7;N;1004.6;5.9;8.8;3218.1;
272;2018-01-06 16:22:01;30;55;18.9;83;8.5;1001.8;0.0;0.3;E;1005.0;5.8;8.5;3218.1;
273;2018-01-06 16:52:01;30;53;18.6;85;8.5;1002.3;0.3;0.7;W;1005.5;6.1;8.5;3218.1;
274;2018-01-06 17:22:01;30;53;19.0;85;8.4;1002.8;0.0;0.3;W;1006.0;6.0;8.4;3218.1;
275;2018-01-06 17:52:01;30;52;19.1;86;8.2;1003.3;0.0;0.3;NW;1006.5;6.0;8.2;3218.1;
276;2018-01-06 18:22:01;30;52;19.3;86;8.0;1003.6;0.3;0.7;NW;1006.8;5.8;8.0;3218.1;
277;2018-01-06 18:52:01;30;52;19.4;86;7.9;1003.8;0.0;0.7;NW;1007.0;5.7;7.9;3218.1;
278;2018-01-06 19:22:01;30;52;19.3;88;7.8;1004.1;0.7;1.0;WNW;1007.3;5.9;7.8;3218.1;
279;2018-01-06 19:52:01;30;52;19.2;88;7.7;1004.4;0.7;1.0;NW;1007.6;5.8;7.7;3218.1;
280;2018-01-06 20:22:01;30;52;18.9;88;7.7;1004.9;0.0;0.7;NW;1008.1;5.8;7.7;3218.1;
281;2018-01-06 20:52:01;30;52;18.9;88;7.8;1005.4;0.7;1.4;NW;1008.6;5.9;7.2;3218.1;
282;2018-01-06 21:22:01;30;52;19.1;88;7.7;1005.7;0.3;1.0;NW;1008.9;5.8;7.7;3218.1;
283;2018-01-06 21:52:01;30;52;19.2;89;7.6;1006.0;0.0;0.3;NW;1009.2;5.9;7.6;3218.1;
284;2018-01-06 22:22:01;30;52;19.3;90;7.6;1006.1;0.0;0.3;NW;1009.3;6.1;7.6;3218.4;
285;2018-01-06 22:52:01;30;52;19.2;91;7.4;1006.2;0.0;0.3;N;1009.4;6.0;7.4;3218.4;
286;2018-01-06 23:22:01;30;52;19.0;91;7.2;1006.2;1.4;2.4;NE;1009.4;5.8;5.6;3218.4;
287;2018-01-06 23:52:01;30;52;18.8;91;7.2;1006.0;0.7;1.0;NE;1009.2;5.8;7.2;3218.4;
288;2018-01-07 00:22:01;30;52;18.6;91;7.2;1006.2;0.7;1.0;E;1009.4;5.8;7.2;3218.4;
289;2018-01-07 00:52:01;30;51;18.2;91;7.3;1006.3;1.0;2.0;E;1009.5;5.9;6.0;3218.4;